Overview Statistics Trail Chart Weather Telemetry Raw packets
 

This is the latest recevied weather packets stored in our database for station/object VE3DVC. If no packets are shown the sender has not sent any weather packets the latest 10 day(s).

<< 32 33 34 35 36 37 38 >>
Time Temp. Humidity Pressure Rain* Wind** Luminosity Snow
1788044092 21.67° C 81% 1020.7 hPa 0 mm - - -
1788043371 21.67° C 81% 1020.7 hPa 0 mm - - -
1788042652 21.67° C 80% 1020.7 hPa 0 mm - - -
1788041944 22.22° C 80% 1020.7 hPa 0 mm - - -
1788041212 22.22° C 81% 1020.8 hPa 0 mm - - -
1788040492 22.22° C 79% 1020.8 hPa 0 mm - - -
1788039752 22.78° C 77% 1020.8 hPa 0 mm - - -
1788039031 22.78° C 75% 1020.9 hPa 0 mm - - -
1788038311 23.33° C 74% 1021 hPa 0 mm - - -
1788037591 23.33° C 71% 1021 hPa 0 mm - - -
1788036871 23.89° C 74% 1021 hPa 0 mm - - -
1788036151 23.89° C 69% 1021.2 hPa 0 mm - - -
1788035432 24.44° C 70% 1021.2 hPa 0 mm - - -
1788034711 24.44° C 67% 1021.4 hPa 0 mm - - -
1788033991 25° C 63% 1021.5 hPa 0 mm - - -
1788033271 25° C 59% 1021.6 hPa 0 mm - - -
1788032551 25.56° C 59% 1021.7 hPa 0 mm - - -
1788031831 25.56° C 58% 1021.7 hPa 0 mm - - -
1788030391 25.56° C 56% 1021.7 hPa 0 mm - - -
1788029671 25.56° C 58% 1021.9 hPa 0 mm - - -
1788028951 25.56° C 58% 1021.9 hPa 0 mm - - -
1788028232 25.56° C 55% 1022 hPa 0 mm - - -
1788027511 25.56° C 59% 1022.2 hPa 0 mm - - -
1788026792 25.56° C 63% 1022.1 hPa 0 mm - - -
1788026071 25° C 63% 1022.2 hPa 0 mm - - -

* Rain latest hour (hover to see other rain measurements)
** Current wind speed in m/s (hover to see current wind gust speed)